| time (UTC) | temp C | wind direction | speed KPH | gust KPH | rain 1hr cm | rain 24hr cm | rain mn cm | humidity % | barometer mb |
| 20260504050446 | 10 | 122 | 0.0 | 1.6 | 0.00 | 0.00 | 0.00 | 53 | 1005.8 |
| 20260504045946 | 10 | 48 | 0.0 | 3.2 | 0.00 | 0.00 | 0.00 | 54 | 1005.8 |
| 20260504045446 | 10 | 0 | 0.0 | 0.0 | 0.00 | 0.00 | 0.00 | 53 | 1005.8 |
| 20260504044946 | 11 | 113 | 0.0 | 1.6 | 0.00 | 0.00 | 0.00 | 52 | 1005.9 |
| 20260504044446 | 11 | 138 | 0.0 | 1.6 | 0.00 | 0.00 | 0.00 | 51 | 1005.9 |
| 20260504043946 | 11 | 158 | 0.0 | 1.6 | 0.00 | 0.00 | 0.00 | 50 | 1005.9 |
| 20260504043446 | 11 | 68 | 0.0 | 1.6 | 0.00 | 0.00 | 0.00 | 52 | 1006.0 |
| 20260504042947 | 11 | 22 | 0.0 | 1.6 | 0.00 | 0.00 | 0.00 | 51 | 1006.1 |
| 20260504042446 | 11 | 155 | 1.6 | 3.2 | 0.00 | 0.00 | 0.00 | 54 | 1006.2 |
| 20260504041946 | 11 | 59 | 0.0 | 1.6 | 0.00 | 0.00 | 0.00 | 52 | 1006.2 |
| 20260504041446 | 11 | 5 | 0.0 | 1.6 | 0.00 | 0.00 | 0.00 | 52 | 1006.3 |
| 20260504040947 | 11 | 176 | 0.0 | 1.6 | 0.00 | 0.00 | 0.00 | 54 | 1006.3 |
| 20260504040446 | 11 | 196 | 0.0 | 1.6 | 0.00 | 0.00 | 0.00 | 50 | 1006.3 |
| 20260504035946 | 11 | 192 | 0.0 | 1.6 | 0.00 | 0.00 | 0.00 | 50 | 1006.3 |
| 20260504035446 | 11 | 42 | 0.0 | 3.2 | 0.00 | 0.00 | 0.00 | 49 | 1006.4 |
| 20260504034946 | 11 | 176 | 1.6 | 1.6 | 0.00 | 0.00 | 0.00 | 53 | 1006.6 |
| 20260504034447 | 11 | 79 | 1.6 | 3.2 | 0.00 | 0.00 | 0.00 | 52 | 1006.6 |
| 20260504033946 | 12 | 105 | 1.6 | 3.2 | 0.00 | 0.00 | 0.00 | 52 | 1006.7 |
| 20260504033447 | 13 | 72 | 0.0 | 3.2 | 0.00 | 0.00 | 0.00 | 47 | 1006.7 |
| 20260504032946 | 13 | 92 | 1.6 | 3.2 | 0.00 | 0.00 | 0.00 | 47 | 1006.7 |
| 20260504032447 | 14 | 33 | 0.0 | 1.6 | 0.00 | 0.00 | 0.00 | 44 | 1006.9 |
| 20260504031947 | 15 | 78 | 1.6 | 3.2 | 0.00 | 0.00 | 0.00 | 43 | 1006.9 |
| 20260504031446 | 16 | 48 | 1.6 | 3.2 | 0.00 | 0.00 | 0.00 | 37 | 1006.9 |
| 20260504030948 | 16 | 331 | 3.2 | 6.4 | 0.00 | 0.00 | 0.00 | 35 | 1007.0 |
| 20260504030447 | 16 | 4 | 3.2 | 4.8 | 0.00 | 0.00 | 0.00 | 36 | 1007.0 |
| 20260504025946 | 16 | 0 | 1.6 | 3.2 | 0.00 | 0.00 | 0.00 | 37 | 1006.9 |
| 20260504025446 | 16 | 355 | 1.6 | 3.2 | 0.00 | 0.00 | 0.00 | 37 | 1006.9 |
| 20260504024946 | 16 | 26 | 3.2 | 4.8 | 0.00 | 0.00 | 0.00 | 37 | 1006.9 |
| 20260504024448 | 16 | 10 | 1.6 | 4.8 | 0.00 | 0.00 | 0.00 | 36 | 1006.7 |
| 20260504023947 | 16 | 339 | 3.2 | 4.8 | 0.00 | 0.00 | 0.00 | 36 | 1006.6 |
| 20260504023447 | 16 | 7 | 1.6 | 3.2 | 0.00 | 0.00 | 0.00 | 37 | 1006.6 |
| 20260504022946 | 16 | 19 | 1.6 | 3.2 | 0.00 | 0.00 | 0.00 | 36 | 1006.6 |
| 20260504022446 | 16 | 14 | 1.6 | 3.2 | 0.00 | 0.00 | 0.00 | 37 | 1006.6 |
| 20260504021946 | 16 | 35 | 3.2 | 4.8 | 0.00 | 0.00 | 0.00 | 37 | 1006.6 |
| 20260504021447 | 17 | 8 | 1.6 | 3.2 | 0.00 | 0.00 | 0.00 | 36 | 1006.6 |
| 20260504020947 | 17 | 334 | 3.2 | 4.8 | 0.00 | 0.00 | 0.00 | 35 | 1006.6 |
| 20260504020446 | 17 | 336 | 3.2 | 6.4 | 0.00 | 0.00 | 0.00 | 35 | 1006.5 |
| 20260504015947 | 17 | 313 | 4.8 | 6.4 | 0.00 | 0.00 | 0.00 | 34 | 1006.5 |
| 20260504015446 | 17 | 317 | 3.2 | 6.4 | 0.00 | 0.00 | 0.00 | 34 | 1006.4 |
| 20260504014946 | 17 | 343 | 3.2 | 6.4 | 0.00 | 0.00 | 0.00 | 34 | 1006.4 |
| 20260504014446 | 17 | 340 | 3.2 | 6.4 | 0.00 | 0.00 | 0.00 | 35 | 1006.4 |
| 20260504013946 | 17 | 319 | 3.2 | 6.4 | 0.00 | 0.00 | 0.00 | 34 | 1006.3 |
| 20260504013446 | 18 | 356 | 3.2 | 4.8 | 0.00 | 0.00 | 0.00 | 34 | 1006.3 |
| 20260504012946 | 18 | 349 | 3.2 | 9.7 | 0.00 | 0.00 | 0.00 | 33 | 1006.2 |
| 20260504012446 | 18 | 327 | 3.2 | 6.4 | 0.00 | 0.00 | 0.00 | 33 | 1006.1 |
| 20260504011946 | 18 | 345 | 4.8 | 6.4 | 0.00 | 0.00 | 0.00 | 33 | 1006.1 |
| 20260504011446 | 18 | 337 | 3.2 | 8.0 | 0.00 | 0.00 | 0.00 | 33 | 1006.1 |
| 20260504010946 | 19 | 331 | 3.2 | 6.4 | 0.00 | 0.00 | 0.00 | 33 | 1006.0 |
| 20260504010447 | 20 | 348 | 3.2 | 6.4 | 0.00 | 0.00 | 0.00 | 32 | 1006.0 |
| 20260504005946 | 20 | 12 | 3.2 | 6.4 | 0.00 | 0.00 | 0.00 | 32 | 1006.0 |
| 20260504005447 | 20 | 28 | 3.2 | 8.0 | 0.00 | 0.00 | 0.00 | 32 | 1006.0 |
| 20260504004946 | 21 | 41 | 1.6 | 4.8 | 0.00 | 0.00 | 0.00 | 31 | 1005.9 |
| 20260504004446 | 21 | 4 | 1.6 | 3.2 | 0.00 | 0.00 | 0.00 | 31 | 1005.9 |
| 20260504003946 | 21 | 19 | 1.6 | 3.2 | 0.00 | 0.00 | 0.00 | 30 | 1005.9 |
| 20260504003446 | 22 | 16 | 0.0 | 1.6 | 0.00 | 0.00 | 0.00 | 29 | 1005.9 |
| 20260504002947 | 22 | 298 | 1.6 | 3.2 | 0.00 | 0.00 | 0.00 | 29 | 1005.9 |
| 20260504002446 | 22 | 305 | 3.2 | 4.8 | 0.00 | 0.00 | 0.00 | 28 | 1005.9 |
| 20260504001946 | 22 | 270 | 1.6 | 4.8 | 0.00 | 0.00 | 0.00 | 28 | 1005.8 |
| 20260504001446 | 22 | 338 | 1.6 | 4.8 | 0.00 | 0.00 | 0.00 | 26 | 1005.8 |
| 20260504000946 | 22 | 288 | 3.2 | 8.0 | 0.00 | 0.00 | 0.00 | 26 | 1005.8 |
| 20260504000446 | 23 | 280 | 3.2 | 6.4 | 0.00 | 0.00 | 0.00 | 26 | 1005.8 |
| 20260503235946 | 23 | 233 | 3.2 | 4.8 | 0.00 | 0.00 | 0.00 | 26 | 1005.8 |
| 20260503235446 | 23 | 294 | 1.6 | 4.8 | 0.00 | 0.00 | 0.00 | 26 | 1005.8 |
| 20260503234946 | 23 | 302 | 4.8 | 9.7 | 0.00 | 0.00 | 0.00 | 25 | 1005.8 |
| 20260503234446 | 23 | 304 | 6.4 | 11.3 | 0.00 | 0.00 | 0.00 | 25 | 1005.8 |
| 20260503233946 | 23 | 296 | 6.4 | 16.1 | 0.00 | 0.00 | 0.00 | 25 | 1005.8 |
| 20260503233446 | 23 | 277 | 6.4 | 11.3 | 0.00 | 0.00 | 0.00 | 24 | 1005.7 |
| 20260503232947 | 23 | 304 | 4.8 | 8.0 | 0.00 | 0.00 | 0.00 | 25 | 1005.7 |
| 20260503232448 | 23 | 273 | 6.4 | 9.7 | 0.00 | 0.00 | 0.00 | 24 | 1005.7 |
| 20260503231946 | 23 | 314 | 6.4 | 9.7 | 0.00 | 0.00 | 0.00 | 24 | 1005.7 |
| 20260503231446 | 23 | 321 | 4.8 | 11.3 | 0.00 | 0.00 | 0.00 | 24 | 1005.7 |
| 20260503230946 | 23 | 290 | 6.4 | 9.7 | 0.00 | 0.00 | 0.00 | 25 | 1005.7 |
| 20260503230446 | 23 | 303 | 1.6 | 3.2 | 0.00 | 0.00 | 0.00 | 25 | 1005.7 |
| 20260503225949 | 24 | 295 | 6.4 | 14.5 | 0.00 | 0.00 | 0.00 | 23 | 1005.7 |
| 20260503225446 | 24 | 286 | 4.8 | 11.3 | 0.00 | 0.00 | 0.00 | 24 | 1005.7 |
| 20260503224946 | 24 | 287 | 3.2 | 6.4 | 0.00 | 0.00 | 0.00 | 24 | 1005.6 |
| 20260503224446 | 23 | 303 | 6.4 | 12.9 | 0.00 | 0.00 | 0.00 | 23 | 1005.7 |
| 20260503223947 | 23 | 8 | 6.4 | 11.3 | 0.00 | 0.00 | 0.00 | 23 | 1005.6 |
| 20260503223446 | 24 | 356 | 8.0 | 14.5 | 0.00 | 0.00 | 0.00 | 23 | 1005.7 |
| 20260503222946 | 24 | 291 | 6.4 | 9.7 | 0.00 | 0.00 | 0.00 | 24 | 1005.6 |
| 20260503222446 | 23 | 343 | 6.4 | 8.0 | 0.00 | 0.00 | 0.00 | 24 | 1005.5 |
| 20260503221947 | 23 | 317 | 4.8 | 8.0 | 0.00 | 0.00 | 0.00 | 24 | 1005.5 |
| 20260503221448 | 23 | 355 | 6.4 | 11.3 | 0.00 | 0.00 | 0.00 | 24 | 1005.5 |
| 20260503220946 | 24 | 356 | 8.0 | 12.9 | 0.00 | 0.00 | 0.00 | 23 | 1005.5 |
| 20260503220446 | 24 | 313 | 6.4 | 9.7 | 0.00 | 0.00 | 0.00 | 25 | 1005.5 |
| 20260503215946 | 24 | 339 | 4.8 | 9.7 | 0.00 | 0.00 | 0.00 | 25 | 1005.5 |
| 20260503215446 | 24 | 356 | 6.4 | 12.9 | 0.00 | 0.00 | 0.00 | 24 | 1005.4 |
| 20260503214946 | 23 | 356 | 4.8 | 9.7 | 0.00 | 0.00 | 0.00 | 24 | 1005.4 |
| 20260503214446 | 24 | 347 | 9.7 | 12.9 | 0.00 | 0.00 | 0.00 | 24 | 1005.4 |
| 20260503213946 | 24 | 314 | 6.4 | 11.3 | 0.00 | 0.00 | 0.00 | 25 | 1005.5 |
| 20260503213446 | 24 | 294 | 4.8 | 11.3 | 0.00 | 0.00 | 0.00 | 26 | 1005.4 |
| 20260503212946 | 24 | 341 | 4.8 | 11.3 | 0.00 | 0.00 | 0.00 | 26 | 1005.4 |
| 20260503212446 | 24 | 355 | 3.2 | 6.4 | 0.00 | 0.00 | 0.00 | 27 | 1005.5 |
| 20260503211947 | 24 | 332 | 4.8 | 14.5 | 0.00 | 0.00 | 0.00 | 26 | 1005.5 |
| 20260503211446 | 24 | 311 | 8.0 | 9.7 | 0.00 | 0.00 | 0.00 | 26 | 1005.6 |
| 20260503210946 | 24 | 285 | 4.8 | 8.0 | 0.00 | 0.00 | 0.00 | 27 | 1005.7 |
| 20260503210446 | 24 | 303 | 6.4 | 14.5 | 0.00 | 0.00 | 0.00 | 26 | 1005.6 |
| 20260503205946 | 24 | 334 | 9.7 | 17.7 | 0.00 | 0.00 | 0.00 | 24 | 1005.6 |
| 20260503205446 | 24 | 291 | 4.8 | 9.7 | 0.00 | 0.00 | 0.00 | 26 | 1005.6 |
| 20260503204946 | 24 | 311 | 8.0 | 9.7 | 0.00 | 0.00 | 0.00 | 27 | 1005.7 |
| 20260503204447 | 24 | 307 | 6.4 | 12.9 | 0.00 | 0.00 | 0.00 | 27 | 1005.7 |
| 20260503203947 | 24 | 299 | 6.4 | 9.7 | 0.00 | 0.00 | 0.00 | 27 | 1005.7 |
| 20260503203446 | 24 | 277 | 9.7 | 14.5 | 0.00 | 0.00 | 0.00 | 27 | 1005.8 |
| 20260503202946 | 24 | 345 | 4.8 | 8.0 | 0.00 | 0.00 | 0.00 | 28 | 1005.8 |
| 20260503202446 | 24 | 344 | 4.8 | 9.7 | 0.00 | 0.00 | 0.00 | 29 | 1005.9 |
| 20260503201946 | 24 | 320 | 6.4 | 11.3 | 0.00 | 0.00 | 0.00 | 27 | 1005.9 |
| 20260503201446 | 24 | 328 | 4.8 | 8.0 | 0.00 | 0.00 | 0.00 | 27 | 1005.9 |
| 20260503200946 | 23 | 318 | 6.4 | 11.3 | 0.00 | 0.00 | 0.00 | 29 | 1005.9 |
| 20260503200446 | 24 | 351 | 3.2 | 8.0 | 0.00 | 0.00 | 0.00 | 29 | 1005.8 |
| 20260503195946 | 24 | 289 | 3.2 | 6.4 | 0.00 | 0.00 | 0.00 | 29 | 1005.9 |
| 20260503195447 | 24 | 298 | 8.0 | 12.9 | 0.00 | 0.00 | 0.00 | 28 | 1005.9 |
| 20260503194946 | 23 | 3 | 4.8 | 9.7 | 0.00 | 0.00 | 0.00 | 32 | 1005.9 |
| 20260503194446 | 23 | 290 | 8.0 | 12.9 | 0.00 | 0.00 | 0.00 | 28 | 1006.0 |
| 20260503193946 | 23 | 299 | 6.4 | 11.3 | 0.00 | 0.00 | 0.00 | 29 | 1005.8 |
| 20260503193447 | 23 | 330 | 8.0 | 14.5 | 0.00 | 0.00 | 0.00 | 28 | 1005.9 |
| 20260503192947 | 23 | 302 | 8.0 | 12.9 | 0.00 | 0.00 | 0.00 | 29 | 1005.9 |
| 20260503192446 | 23 | 284 | 6.4 | 11.3 | 0.00 | 0.00 | 0.00 | 29 | 1005.9 |
| 20260503191946 | 23 | 316 | 6.4 | 12.9 | 0.00 | 0.00 | 0.00 | 29 | 1005.9 |
| 20260503191446 | 23 | 350 | 9.7 | 14.5 | 0.00 | 0.00 | 0.00 | 31 | 1005.8 |
| 20260503190947 | 23 | 306 | 9.7 | 17.7 | 0.00 | 0.00 | 0.00 | 29 | 1006.0 |
| 20260503190446 | 23 | 337 | 6.4 | 9.7 | 0.00 | 0.00 | 0.00 | 31 | 1005.9 |
| 20260503185946 | 23 | 325 | 6.4 | 14.5 | 0.00 | 0.00 | 0.00 | 32 | 1006.1 |
| 20260503185447 | 23 | 311 | 8.0 | 16.1 | 0.00 | 0.00 | 0.00 | 31 | 1005.9 |
| 20260503184946 | 23 | 326 | 8.0 | 14.5 | 0.00 | 0.00 | 0.00 | 30 | 1006.0 |
| 20260503184447 | 23 | 304 | 11.3 | 16.1 | 0.00 | 0.00 | 0.00 | 29 | 1005.9 |
| 20260503183946 | 23 | 314 | 9.7 | 14.5 | 0.00 | 0.00 | 0.00 | 29 | 1006.0 |
| 20260503183446 | 23 | 318 | 6.4 | 14.5 | 0.00 | 0.00 | 0.00 | 30 | 1005.9 |
| 20260503182947 | 23 | 295 | 4.8 | 8.0 | 0.00 | 0.00 | 0.00 | 31 | 1006.1 |
| 20260503182447 | 23 | 307 | 9.7 | 14.5 | 0.00 | 0.00 | 0.00 | 30 | 1006.1 |
| 20260503181946 | 23 | 269 | 8.0 | 20.9 | 0.00 | 0.00 | 0.00 | 30 | 1006.1 |
| 20260503181447 | 23 | 321 | 3.2 | 9.7 | 0.00 | 0.00 | 0.00 | 31 | 1006.2 |
| 20260503180948 | 23 | 299 | 3.2 | 9.7 | 0.00 | 0.00 | 0.00 | 32 | 1006.1 |
| 20260503180447 | 22 | 255 | 4.8 | 8.0 | 0.00 | 0.00 | 0.00 | 33 | 1006.2 |
| 20260503175946 | 22 | 257 | 9.7 | 14.5 | 0.00 | 0.00 | 0.00 | 32 | 1006.3 |
| 20260503175446 | 22 | 267 | 6.4 | 9.7 | 0.00 | 0.00 | 0.00 | 34 | 1006.4 |
| 20260503174947 | 22 | 307 | 8.0 | 12.9 | 0.00 | 0.00 | 0.00 | 33 | 1006.5 |
| 20260503174446 | 22 | 259 | 11.3 | 19.3 | 0.00 | 0.00 | 0.00 | 33 | 1006.5 |
| 20260503173946 | 22 | 266 | 6.4 | 9.7 | 0.00 | 0.00 | 0.00 | 34 | 1006.6 |
| 20260503173447 | 22 | 275 | 8.0 | 16.1 | 0.00 | 0.00 | 0.00 | 35 | 1006.6 |
| 20260503172947 | 21 | 275 | 6.4 | 14.5 | 0.00 | 0.00 | 0.00 | 35 | 1006.7 |
| 20260503172447 | 21 | 279 | 6.4 | 11.3 | 0.00 | 0.00 | 0.00 | 35 | 1006.9 |
| 20260503171947 | 21 | 258 | 8.0 | 14.5 | 0.00 | 0.00 | 0.00 | 36 | 1006.9 |
| 20260503171446 | 21 | 274 | 9.7 | 14.5 | 0.00 | 0.00 | 0.00 | 35 | 1007.0 |
| 20260503170947 | 21 | 249 | 8.0 | 14.5 | 0.00 | 0.00 | 0.00 | 35 | 1006.9 |
| 20260503170446 | 20 | 268 | 9.7 | 14.5 | 0.00 | 0.00 | 0.00 | 36 | 1007.1 |
| 20260503150947 | 16 | 187 | 6.4 | 11.3 | 0.00 | 0.00 | 0.00 | 41 | 1007.7 |
| 20260503150447 | 16 | 266 | 6.4 | 14.5 | 0.00 | 0.00 | 0.00 | 41 | 1007.8 |
| 20260503130946 | 12 | 172 | 4.8 | 8.0 | 0.00 | 0.00 | 0.00 | 48 | 1009.3 |
| 20260503130448 | 12 | 168 | 4.8 | 8.0 | 0.00 | 0.00 | 0.00 | 48 | 1009.3 |
| 20260503110446 | 11 | 127 | 4.8 | 8.0 | 0.00 | 0.00 | 0.00 | 50 | 1010.0 |
| 20260503090446 | 11 | 148 | 3.2 | 6.4 | 0.00 | 0.00 | 0.00 | 45 | 1011.8 |
| 20260503081446 | 11 | 171 | 3.2 | 4.8 | 0.00 | 0.00 | 0.00 | 48 | 1012.6 |
| 20260503080947 | 11 | 168 | 6.4 | 8.0 | 0.00 | 0.00 | 0.00 | 48 | 1012.4 |
| 20260503080446 | 11 | 174 | 4.8 | 6.4 | 0.00 | 0.00 | 0.00 | 49 | 1012.4 |
| 20260503072446 | 11 | 179 | 3.2 | 6.4 | 0.00 | 0.00 | 0.00 | 49 | 1013.0 |
| 20260503071946 | 11 | 176 | 3.2 | 6.4 | 0.00 | 0.00 | 0.00 | 48 | 1013.0 |
| 20260503071448 | 11 | 178 | 4.8 | 8.0 | 0.00 | 0.00 | 0.00 | 49 | 1013.0 |
| 20260503070946 | 11 | 198 | 3.2 | 4.8 | 0.00 | 0.00 | 0.00 | 50 | 1013.0 |
| 20260503070447 | 11 | 217 | 3.2 | 4.8 | 0.00 | 0.00 | 0.00 | 48 | 1013.1 |